Regional Weather Roundup
Issued by NWS Charleston, SC

Home | Current Version | Previous Version | Text Only | Print | Product List | Glossary On
Versions: 1 2 3 4 5 6 7 8 9 10 11 12 13 14 15 16 17 18 19 20 21 22 23 24 25 26 27 28 29 30 31 32 33 34 35 36 37 38 39 40 41 42 43 44 45 46 47 48 49 50
000
ASUS42 KCHS 011126
RWRCHS

REGIONAL WEATHER ROUNDUP
NATIONAL WEATHER SERVICE CHARLESTON SC
600 AM EST SUN MAR 01 2015

NOTE: "FAIR" INDICATES FEW OR NO CLOUDS BELOW 12,000 FEET WITH NO
SIGNIFICANT WEATHER AND/OR OBSTRUCTIONS TO VISIBILITY.

NOT ALL STATIONS ARE QUALITY CONTROLLED BY THE NATIONAL
WEATHER SERVICE. USE DATA WITH CAUTION...ESPECIALLY
DEWPOINT OBSERVATIONS.

SCZ027-030-031-034>040-042>050-011200-
...SOUTHEAST SOUTH CAROLINA...

CITY           SKY/WX    TMP DP  RH WIND       PRES   REMARKS
N CHARLESTON   CLOUDY    40  36  86 N9        30.50R WCI  34
WATERFRONT PRK   N/A     43 N/A N/A N12         N/A
MOUNT PLEASANT LGT RAIN  39  37  93 N5        30.50R WCI  36
PINOPOLIS        N/A     39  36  87 NE9       30.43R WCI  33
MONCKS CORNER  CLOUDY    39  36  87 NE6       30.50F WCI  35
SUMMERVILLE    CLOUDY    37  37 100 N7        30.51S WCI  32
BEAUFORT MCAS  LGT RAIN  41  39  93 N7        30.49R FOG
BEAUFORT ARPT  CLOUDY    41  41 100 N9        30.48S
HILTON HEAD IS NOT AVBL
WALTERBORO     CLOUDY    39  37  93 NE5       30.50F WCI  36
ALLENDALE      LGT RAIN  37  37 100 N5        30.51S WCI  34

...SOUTHERN MIDLANDS AND PEE DEE...

CITY           SKY/WX    TMP DP  RH WIND       PRES   REMARKS
GEORGETOWN     NOT AVBL
KINGSTREE      NOT AVBL
ORANGEBURG     CLOUDY    36  32  85 NE10      30.52R WCI  28
BARNWELL       LGT RAIN  36  36 100 NE6       30.53R WCI  31
AIKEN          DRIZZLE   34  34 100 NE8       30.53F WCI  27
MANNING        LGT RAIN N/A N/A N/A N6        30.53R
COLUMBIA       RAIN      34  32  92 N7        30.54R FOG     WCI  28
SUMTER         LGT RAIN  32  32 100 NE10      30.51F FOG     WCI  24
FLORENCE       CLOUDY    35  28  75 NE9       30.54S WCI  28
MYRTLE BEACH   CLOUDY    39  28  65 N9        30.53F WCI  33
N MYRTLE BEACH CLOUDY    39  30  70 N7        30.52S WCI  34

$$

GAZ063-065-086>088-099>101-113>116-118-119-134>141-150-011200-
...SOUTHEAST GEORGIA...

CITY           SKY/WX    TMP DP  RH WIND       PRES   REMARKS
SAVANNAH ARPT  DRIZZLE   42  39  89 N6        30.49R FOG
HUNTER AAF     CLOUDY    43  41  93 VRB3      30.45S
FORT STEWART   HVY RAIN  43  41  93 N7        30.45S FOG
STATESBORO     CLOUDY    39  39 100 NE3       30.50S FOG
SYLVANIA       DRIZZLE   39  39 100 NE8       30.51R WCI  33
CLAXTON        CLOUDY    41  41 100 NE6       30.49S FOG

...CSRA...CENTRAL AND FAR SOUTHEAST GEORGIA...

CITY           SKY/WX    TMP DP  RH WIND       PRES   REMARKS
THOMSON        CLOUDY    37  37 100 NE6       30.58R WCI  32
AUGUSTA-BUSH   LGT RAIN  37  36  96 N6        30.53S FOG     WCI  32
AUGUSTA-DANIEL LGT RAIN  37  34  89 N7        30.53R WCI  32
SWAINSBORO     CLOUDY    41  39  93 NE5       30.50S FOG
VIDALIA        CLOUDY    41  41 100 NE7       30.48S FOG
EASTMAN        CLOUDY    40  40 100 NE6       30.51R FOG     WCI  36
HAZLEHURST     CLOUDY    43  43 100 NE8       30.46S FOG
ALMA           CLOUDY    43  41  93 NE6       30.46R FOG
WAYCROSS       CLOUDY    47  47  98 NE9       30.46R FOG
JESUP          CLOUDY    46  45  93 NE5       30.46S FOG
BAXLEY         CLOUDY    45  43  93 NE8       30.46S FOG
BRUNSWICK      CLOUDY    46  45  93 NE8       30.45R
SAINT SIMONS   CLOUDY    46  45  96 N14G24    30.43R FOG

$$

SCZ027-028-034-036>038-045-046-048>050-GAZ119-141-011200-
...LAKE AND SUPPLEMENTAL COASTAL OBSERVATIONS...

STATION/POSITION TIME  TEMP    WIND        PRES    WAVE   SWELL
                       AIR SEA DIR/SP/G            HT/PER HT/PER/DIR
                 (UTC) (F)     (DEG/KT/KT) (MB)    (FT/S) (FT/S/D)
UPR LAKE MARION  NOT AVBL
WINYAH BAY       1045   39      20/  5     1032.0R
LAKE MURRAY      1100   32      20/  4/  7 1033.2F
ACE BASIN NERRS  NOT AVBL
FORT PULASKI     1100   43 48  360/  7/  9 1032.4R
SAPELO ISLAND    1100   45      20/ 11     1031.0R

$$

ANZ835-935-AMZ111-154-330-350-352-354-370-450-454-472-011200-
...C-MAN AND BUOY OBSERVATIONS...

STATION/POSITION TIME  TEMP    WIND        PRES    WAVE   SWELL
                       AIR SEA DIR/SP/G            HT/PER HT/PER/DIR
                 (UTC) (F)     (DEG/KT/KT) (MB)    (FT/S) (FT/S/D)
BUOY 41004       1050   68 66  110/ 17/ 19 1029.6R   9/ 7   5/ 8
BUOY 41008       1050   51 53   30/ 19/ 23 1029.4R   7/ 7   3/ 70/10
FOLLY BEACH CMAN 1100   42      30/ 14/ 17 1032.4R
CAPERS NEARSHORE NOT AVBL
FRIPP NEARSHORE  1000   44      40/ 17/ 19 1029.8R


STATION/POSITION TIME  TEMP    WIND        PRES    WAVE   SWELL
                       AIR SEA DIR/SP/G            HT/PER HT/PER/DIR
                 (UTC) (F)     (DEG/KT/KT) (MB)    (FT/S) (FT/S/D)
5E ST. MARYS GA  1021      52                N/A     7/ 7   2/ 70/11
FRYING PAN BUOY  1050   63 61  110/ 14/ 17 1032.3F   7/ 7   3/110/ 9
BUOY 41025       NOT AVBL
CAPE LOOKOUT NC  1100   38      20/ 11/ 13 1034.5R
BUOY 41002       1050   67 71   90/ 21/ 25 1032.2R   9/ 8
BUOY 41010       1020   71 74   90/ 21/ 25 1027.1R
ST AUGUSTINE FL  1100   54     340/ 11/ 13 1029.3R


$$



USA.gov is the U.S. government's official web portal to all federal, state and local government web resources and services.